DW0108 Weather Reports


time (UTC)temp
F
wind
direction
speed
knots
gust
knots
rain 1hr
in
rain 24hr
in
rain mn
in
humidity
%
barometer
mb
20260906223819 99 160 0.0 1.7 0.00 0.00 0.00 41 1011.1
20260906222804 99 153 0.0 1.7 0.00 0.00 0.00 40 1011.1
20260906221815 99 81 0.9 2.6 0.00 0.00 0.00 40 1011.1
20260906220807 99 156 1.7 2.6 0.00 0.00 0.00 41 1011.5
20260906215825 98 94 0.0 2.6 0.00 0.00 0.00 42 1011.5
20260906214838 99 158 0.9 1.7 0.00 0.00 0.00 41 1011.5
20260906213844 100 59 0.9 3.5 0.00 0.00 0.00 40 1011.8
20260906211834 100 192 0.9 5.2 0.00 0.00 0.00 40 1011.8
20260906210830 97 152 0.0 2.6 0.00 0.00 0.00 42 1012.1
20260906205837 99 111 0.9 4.3 0.00 0.00 0.00 40 1012.5
20260906204829 100 120 0.9 3.5 0.00 0.00 0.00 41 1012.1
20260906202833 98 124 1.7 4.3 0.00 0.00 0.00 43 1012.5
20260906200825 99 83 0.9 2.6 0.00 0.00 0.00 42 1012.5
20260906195825 98 109 1.7 4.3 0.00 0.00 0.00 43 1012.8
20260906194842 98 125 0.9 3.5 0.00 0.00 0.00 45 1012.8
20260906193836 99 183 1.7 3.5 0.00 0.00 0.00 44 1012.8
20260906192839 98 53 0.9 1.7 0.00 0.00 0.00 45 1012.8
20260906191808 98 179 1.7 5.2 0.00 0.00 0.00 45 1013.2
20260906190845 98 115 0.9 3.5 0.00 0.00 0.00 44 1013.2
20260906185835 98 187 0.9 1.7 0.00 0.00 0.00 44 1013.5
20260906184815 98 174 0.9 2.6 0.00 0.00 0.00 44 1013.5
20260906183810 97 150 0.9 2.6 0.00 0.00 0.00 46 1013.2
20260906182847 97 101 0.9 2.6 0.00 0.00 0.00 44 1013.5
20260906181809 97 194 0.9 4.3 0.00 0.00 0.00 46 1013.8
20260906180840 96 79 1.7 3.5 0.00 0.00 0.00 47 1014.2
20260906175835 96 101 0.9 4.3 0.00 0.00 0.00 47 1014.2
20260906174819 96 129 0.9 2.6 0.00 0.00 0.00 46 1014.2
20260906173845 95 96 0.9 2.6 0.00 0.00 0.00 49 1014.2
20260906172828 95 128 0.9 2.6 0.00 0.00 0.00 50 1014.2
20260906171830 94 97 0.9 2.6 0.00 0.00 0.00 51 1014.8
20260906170833 95 142 1.7 4.3 0.00 0.00 0.00 52 1015.2
20260906165821 94 138 0.9 3.5 0.00 0.00 0.00 53 1014.8
20260906164848 94 77 0.9 2.6 0.00 0.00 0.00 53 1015.2
20260906163842 93 95 0.9 4.3 0.00 0.00 0.00 54 1014.8
20260906162823 94 130 0.9 2.6 0.00 0.00 0.00 53 1015.2
20260906161820 93 126 0.0 1.7 0.00 0.00 0.00 56 1014.8
20260906160811 93 85 0.0 2.6 0.00 0.00 0.00 58 1015.2
20260906155809 93 139 0.0 1.7 0.00 0.00 0.00 59 1015.2
20260906154833 92 137 0.0 1.7 0.00 0.00 0.00 60 1015.2
20260906152816 89 157 0.9 3.5 0.00 0.00 0.00 66 1015.2
20260906151824 88 155 0.9 2.6 0.00 0.00 0.00 68 1014.8
20260906150836 87 164 0.9 1.7 0.00 0.00 0.00 69 1014.8
20260906145818 87 127 0.9 2.6 0.00 0.00 0.00 69 1014.8
20260906144847 87 137 0.9 1.7 0.00 0.00 0.00 71 1014.5
20260906143837 88 100 0.0 0.9 0.00 0.00 0.00 69 1014.5
20260906142806 85 183 0.0 1.7 0.00 0.00 0.00 74 1014.8
20260906141826 84 128 0.0 1.7 0.00 0.00 0.00 75 1014.8
20260906140835 83 145 0.0 0.9 0.00 0.00 0.00 77 1014.8
20260906135823 83 104 0.0 1.7 0.00 0.00 0.00 78 1014.8
20260906134846 82 121 0.9 1.7 0.00 0.00 0.00 79 1014.5
20260906133818 82 116 0.0 0.9 0.00 0.00 0.00 80 1014.5
20260906132807 81 84 0.0 0.9 0.00 0.00 0.00 81 1014.5
20260906131831 80 65 0.0 0.9 0.00 0.00 0.00 83 1014.5
20260906130810 79 57 0.0 0.9 0.00 0.00 0.00 84 1014.8
20260906125827 79 75 0.0 0.0 0.00 0.00 0.00 87 1014.5
20260906124841 78 73 0.0 0.9 0.00 0.00 0.00 88 1014.5
20260906122848 77 59 0.0 0.9 0.00 0.00 0.00 89 1014.5
20260906121834 77 76 0.0 0.0 0.00 0.00 0.00 89 1014.2
20260906120816 77 62 0.0 0.0 0.00 0.00 0.00 88 1014.2
20260906115844 77 176 0.0 0.0 0.00 0.00 0.00 89 1013.8
20260906114806 77 83 0.0 0.9 0.00 0.00 0.00 88 1013.8
20260906113808 78 104 0.0 0.0 0.00 0.00 0.00 87 1013.8
20260906112821 78 144 0.0 0.9 0.00 0.00 0.00 87 1013.5
20260906111844 78 184 0.0 0.0 0.00 0.00 0.00 87 1013.5
20260906110810 78 85 0.0 0.9 0.00 0.00 0.00 86 1013.5
20260906105835 78 87 0.0 0.0 0.00 0.00 0.00 85 1013.5
20260906104831 78 99 0.0 0.9 0.00 0.00 0.00 85 1013.5
20260906102836 79 146 0.0 0.9 0.00 0.00 0.00 84 1013.5
20260906101834 79 130 0.0 0.9 0.00 0.00 0.00 84 1013.2
20260906100834 80 47 0.0 0.9 0.00 0.00 0.00 81 1013.5
20260906095819 80 76 0.0 0.9 0.00 0.00 0.00 81 1013.2
20260906093842 80 90 0.0 0.9 0.00 0.00 0.00 80 1012.8
20260906091840 81 144 0.0 1.7 0.00 0.00 0.00 78 1012.8
20260906085838 81 133 0.0 0.9 0.00 0.00 0.00 78 1012.5
20260906083811 81 80 0.0 0.9 0.00 0.00 0.00 79 1012.5
20260906082826 81 98 0.0 0.9 0.00 0.00 0.00 78 1012.8
20260906081818 82 167 0.0 0.9 0.00 0.00 0.00 77 1012.8
20260906080839 82 194 0.0 0.0 0.00 0.00 0.00 77 1013.2
20260906075828 82 184 0.0 0.0 0.00 0.00 0.00 76 1013.2
20260906074823 83 245 0.0 0.9 0.00 0.00 0.00 76 1013.2
20260906073817 83 201 0.0 0.9 0.00 0.00 0.00 76 1013.2
20260906072840 83 116 0.0 0.9 0.00 0.00 0.00 75 1012.8
20260906071814 84 128 0.0 1.7 0.00 0.00 0.00 75 1012.8
20260906070807 84 166 0.9 1.7 0.00 0.00 0.00 74 1012.8
20260906065836 84 148 0.0 0.9 0.00 0.00 0.00 74 1012.8
20260906064832 84 135 0.0 0.9 0.00 0.00 0.00 74 1012.8
20260906061843 84 138 0.0 0.9 0.00 0.00 0.00 72 1013.2
20260906055830 84 240 0.0 0.0 0.00 0.00 0.00 72 1013.5
20260906054847 84 113 0.0 0.9 0.00 0.00 0.00 72 1013.2
20260906053830 85 151 0.0 1.7 0.00 0.00 0.00 71 1013.2
20260906051823 86 91 0.0 0.9 0.00 0.00 0.00 70 1013.5
20260906050840 86 136 0.0 0.9 0.00 0.00 0.00 69 1013.5
20260906045831 86 165 0.0 1.7 0.00 0.00 0.00 68 1013.5
20260906044842 86 167 0.0 1.7 0.00 0.00 0.00 68 1013.2
20260906043831 87 155 0.9 3.5 0.00 0.00 0.00 67 1013.5
20260906042813 87 160 0.9 2.6 0.00 0.00 0.00 67 1012.8
20260906041806 87 158 0.0 2.6 0.00 0.00 0.00 66 1012.8
20260906040820 87 153 0.9 3.5 0.00 0.00 0.00 66 1013.2
20260906035818 88 153 0.9 2.6 0.00 0.00 0.00 66 1013.2
20260906034841 88 161 0.0 2.6 0.00 0.00 0.00 65 1012.8
20260906033827 88 138 0.0 0.9 0.00 0.00 0.00 65 1013.2
20260906032809 88 158 0.9 1.7 0.00 0.00 0.00 65 1013.2
20260906031847 89 151 0.9 2.6 0.00 0.00 0.00 64 1013.5
20260906030832 89 150 0.9 2.6 0.00 0.00 0.00 62 1013.2
20260906024804 90 142 0.0 1.7 0.00 0.00 0.00 60 1012.8
20260906023840 90 145 0.0 1.7 0.00 0.00 0.00 59 1012.8
20260906022833 90 145 0.9 1.7 0.00 0.00 0.00 58 1012.5
20260906020814 91 147 0.0 1.7 0.00 0.00 0.00 55 1012.5
20260906015846 91 144 1.7 7.0 0.00 0.00 0.00 54 1012.1
20260906014819 92 148 0.9 2.6 0.00 0.00 0.00 53 1011.8
20260906013820 93 154 0.9 3.5 0.00 0.00 0.00 50 1011.8
20260906010834 95 141 0.9 2.6 0.00 0.00 0.00 46 1011.1
20260906005822 95 168 0.0 1.7 0.00 0.00 0.00 44 1011.5
20260906004821 95 143 0.0 1.7 0.00 0.00 0.00 43 1011.1
20260906003848 96 134 0.0 0.9 0.00 0.00 0.00 43 1011.1
20260906002818 96 145 0.0 0.9 0.00 0.00 0.00 42 1011.1
20260906001843 97 127 0.0 0.9 0.00 0.00 0.00 42 1011.1
20260906000840 97 152 0.0 1.7 0.00 0.00 0.00 41 1011.1
20260905235817 97 163 0.0 1.7 0.00 0.00 0.01 41 1010.8
20260905234818 97 77 0.0 1.7 0.00 0.00 0.01 41 1011.1
20260905233812 97 130 0.0 0.9 0.00 0.00 0.01 42 1010.8
20260905232842 98 141 0.9 1.7 0.00 0.00 0.01 41 1010.8
20260905231847 99 181 0.0 1.7 0.00 0.00 0.01 41 1011.1
20260905230830 98 152 0.0 0.9 0.00 0.00 0.01 40 1010.8
20260905225837 99 129 0.9 3.5 0.00 0.00 0.01 40 1010.8